Showing default

METEOSAT 2, 12544

Orbit data source: Space-Track

METEOSAT 2, 12544 is a payload satellite owned by ESA (ESA) in GEO that was launched on Fri, 19 Jun 1981 UTC via an ARIANE 1 launch vehicle from the French Guiana (FRGUI). Payload-class satellites include a variety of spacecraft equipped with specific instruments for various scientific and technological missions. These include communications satellites like Starlink; space stations such as the ISS; scientific satellites like the Hubble; Earth observation satellites from companies like Planet Labs, Umbra, and HawkEye 360; GPS; miniature CubeSats for education and research; and military/defense satellites.

Loading next visibility...
Identifier
12544, 1981-057A
Orbit
GEO
Last TLE update
17 hours ago
Origin
Manufacturer
Ae/Cannes
Mission
Non-operational Civil Weather
Bus & Motor
METEOSAT, MAGE 1
Mass
324 kg wet, 282 kg dry
Launch date (UTC)
1981-06-19 (44 years ago)
Launch vehicle
ARIANE 1
Launch site
French Guiana (FRGUI)
Object type
Payload
Rocket body
Debris
Shape & HBR
Cyl + Cyl + 1 Ant, 3.415 m
Radar Cross Section
4.680 m², Large (>1 m²)

Expand to show TLE details & history

TLE from 17 hours ago
0 METEOSAT 2
1 12544U 81057A   25128.87747484 -.00000246  00000-0  00000-0 0  9997
2 12544  10.9563 321.9501 0028669   9.8452 187.7581  0.98726654119850
Epoch: 2025-05-08T21:03Z
Definitive object data (Epoch: 2025-05-08T21:03:33.826Z)
Latitude
-3.31003°
Longitude
-23.6123°
Altitude
36,346.036 km
Speed
3.05 km/s
True Right ascension
10h 36m 52s
True Declination
-3° 18' 24"
Sunlit
Object was in daylight at TLE epoch
Visualization TLE readout
Latitude
10.91862°
Longitude
-125.49958°
Altitude
36,213.856 km
Speed
3.06 km/s
Apparent Right ascension
04h 16m 08s
Apparent Declination
5° 32' 34"
Sunlit
Object is in daylight
Visualization observer readout
Local Sidereal Time
22:36:22
Azimuth
88.974° E
Elevation
7.429°
Doppler factor
1
Orbital elements
Apogee altitude
36,348.538 km
Perigee altitude
36,104.252 km
Semi-major axis
42,604.532 km
Eccentricity
0.0028669
Inclination
10.9563°
RAAN
321.9501°
Arg. of periapsis
9.8452°
True anomaly
187.71391°
Mean anomaly
187.7581°
Eccentric anomaly
187.73599°
Mean motion
0.24681 °/min
BSTAR
Unknown
Orbital period
1458.62 mins
Loading historical data...
12544 neighbors
Loading maneuver chart data...
Loading SW <> Apogee altitude chart data...
Loading historical data...
Loading historical data...
Loading historical data...
Loading historical data...
Loading historical data...
Loading historical data...
Loading historical data...

METEOSAT 2 Visibility forecast

Observer location: undefined°, undefined°

Span
Click to sort rows by Start time (UTC) header in descending order
Start Az.
Max El. time (UTC)
Max El. Az.
Max El.
End time (UTC)
End Az.
167 mins2025-05-10 11:39:13.198Z94.789° ESE2025-05-10 14:20:13.198Z92.605° ESE11.659°2025-05-10 14:26:13.198Z92.601° ESE
|